User: anonymous
Location: Unspecified
(0.0000°N, 0.0000°E)
Time: 03:50:17
(UTC+02:00)
Language:

Cosmos 1092 Rocket - Orbit

View from above orbital plane
View from above orbital plane
View from above satellite
View from above satellite

Ground track
Ground track

The orbit data is extracted from the following two-line orbital elements,

1 11327U 79030B   14243.42483291  .00000021  00000-0  53182-5 0  8244
2 11327 082.9531 333.7772 0028666 155.1782 254.5343 13.76940583778669
Epoch (UTC): 31 August 2014 10:11:45
Eccentricity: 0.0028666
inclination: 82.9531°
perigee height: 953 km
apogee height: 996 km
right ascension of ascending node: 333.7772°
argument of perigee: 155.1782°
revolutions per day: 13.76940583
mean anomaly at epoch: 254.5343°
orbit number at epoch: 77866

The dashed part of the orbit path shows where the satellite is in the earth's shadow,  

DLR